Powrót do katalogu

STARLINK-36746

AktywnyŁącznośćSSO
NORAD 67733·PAYLOAD·🇺🇸 United States

Wystrzelony Feb 11, 2026 z Vandenberg Space Force Base

Loading…

Następne Przeloty (najbliższe 24 godziny)

TLE

ŚwieżeSource: CelesTrak SupGP

Epoka: Sep 14, 2026, 21:22 UTC

1 67733C 26026N   26257.89076389 -.00008316  00000+0 -25767-3 0  2570
2 67733  97.2850 309.8006 0001422  93.1907 177.7478 15.33501186    18

Śledź STARLINK-36746 w czasie rzeczywistym z AllMySat

Download on the App Store